Regional Weather Roundup
Issued by NWS Kansas City/Pleasant Hill, MO

Home | Current Version | Previous Version | Graphics & Text | Print | Product List | Glossary Off
Versions: 1 2 3 4 5 6 7 8 9 10 11 12 13 14 15 16 17 18 19 20 21 22 23 24 25 26 27 28 29

000
ASUS43 KEAX 291710
RWREAX

WEATHER ROUNDUP FOR EASTERN KANSAS AND NORTHWEST MISSOURI
NATIONAL WEATHER SERVICE KANSAS CITY/PLEASANT HILL MO
1200 PM CDT FRI APR 29 2016

KSZ040-057-103>105-MOZ028-029-037-043-291800-
...KANSAS CITY METROPOLITAN AREA...

CITY           SKY/WX    TMP DP  RH WIND       PRES   REMARKS
K.C. INTL      CLOUDY    54  45  71 NE14      30.02F
K.C. DOWNTOWN  CLOUDY    56  46  69 NE14      30.01S
LEES SUMMIT    CLOUDY    55  46  71 E13       30.02F
OLATHE - IXD   CLOUDY    55  46  71 E10G18    30.02S
OLATHE - OJC   PTSUNNY   56  47  71 E8        30.00F
LAWRENCE       CLOUDY    53  45  74 E13       30.02S

$$

MOZ001>008-011>017-020>025-030>033-038>040-044>046-053-054-291800-
...NORTHERN AND CENTRAL MISSOURI...

CITY           SKY/WX    TMP DP  RH WIND       PRES   REMARKS
ST. JOSEPH     CLOUDY    52  44  74 NE13      30.02F
MOSBY          CLOUDY    54  45  71 NE10      30.04R
WARRENSBURG    CLOUDY    57  46  67 NE13      30.02S
WHITEMAN AFB   CLOUDY    59  50  72 NE9       30.00F
CLINTON        PTSUNNY   59  50  72 E9        30.00S
SEDALIA        CLOUDY    59  50  72 E10       30.02F
WARSAW         NOT AVBL
CHILLICOTHE      N/A     53  46  77 E9        30.07F
KIRKSVILLE     CLOUDY    53  45  74 E9        30.09R

$$

MOZ041-047>049-056>058-063>065-088>090-097-291800-
...EASTERN AND SOUTHERN MISSOURI...

CITY           SKY/WX    TMP DP  RH WIND       PRES   REMARKS
ST. LOUIS INTL CLOUDY    62  48  60 SE5       30.07S
SPIRIT OF STL  CLOUDY    60  50  69 E5        30.05F
COLUMBIA       CLOUDY    58  49  72 E13       30.04F
JEFFERSON CITY CLOUDY    57  48  72 E9        30.04F
ROLLA          CLOUDY    54  49  83 E10       30.00F
OSAGE BEACH    CLOUDY    55  43  62 NE9       29.99F
SPRINGFIELD    CLOUDY    59  52  77 E16G26    29.90F
BRANSON        CLOUDY    55  54  94 E12       29.92R
JOPLIN         MOSUNNY   64  54  69 E16G23    29.89R
WEST PLAINS    RAIN      53  50  89 NE7       30.03F FOG

$$

IAZ060-094-KSZ022-034>040-054-083-096-NEZ052-066-093-291800-
...KANSAS...SOUTHEAST NEBRASKA AND IOWA...

CITY           SKY/WX    TMP DP  RH WIND       PRES   REMARKS
TOPEKA         CLOUDY    52  44  74 NE13      30.02S
MANHATTAN      LGT RAIN  48  41  76 NE15      29.99F
EMPORIA        CLOUDY    52  45  77 NE15G22   29.96F
CHANUTE        PTSUNNY   60  49  66 E14G21    29.91F
WICHITA        RAIN      49  46  90 NE21G33   29.89S FOG
OMAHA          CLOUDY    48  39  71 NE12      30.08F
LINCOLN        CLOUDY    48  39  71 NE12      30.08F
FALLS CITY     CLOUDY    49  43  80 E13       30.04F
LAMONI         CLOUDY    50  45  83 NE9       30.07S
DES MOINES     CLOUDY    49  41  74 NE14      30.09F

$$





USA.gov is the U.S. government's official web portal to all federal, state and local government web resources and services.